Tracking 28091 objects as of 30-Sep-2023
HD Live streaming from Space Station
objects crossing your sky now

STARLINK-6028

Track STARLINK-6028 now!
10-day predictions
STARLINK-6028 is classified as:


NORAD ID: 56818
Int'l Code: 2023-078BD
Perigee: 495.5 km
Apogee: 500.2 km
Inclination: 70.0 °
Period: 94.4 minutes
Semi major axis: 6868 km
RCS: Unknown
Launch date: May 31, 2023
Source: United States (US)
Launch site: AIR FORCE WESTERN TEST RANGE (AFWTR)
Your satellite tracking list
Your tracking list is empty




NASA's NSSDC Master Catalog

Two Line Element Set (TLE):
1 56818U 23078BD  23273.50001157 -.00942919  00000-0 -40684-1 0  9993
2 56818  70.0000  72.0040 0003440 270.5457 130.5127 15.25017033 19434
Source of the keplerian elements: AFSPC